| time (UTC) | temp F | wind direction | speed MPH | gust MPH | rain 1hr in | rain 24hr in | rain mn in | humidity % | barometer mb |
| 20260509205911 | 58 | 13 | 13.0 | 22.0 | 0.00 | 0.00 | 0.00 | 79 | 1020.7 |
| 20260509205407 | 58 | 30 | 12.0 | 22.0 | 0.00 | 0.00 | 0.00 | 79 | 1020.7 |
| 20260509205222 | 58 | 33 | 15.0 | 23.0 | 0.00 | 0.00 | 0.00 | 80 | 1020.8 |
| 20260509204407 | 58 | 24 | 15.0 | 24.0 | 0.00 | 0.00 | 0.00 | 80 | 1020.7 |
| 20260509203907 | 58 | 44 | 12.0 | 24.0 | 0.00 | 0.00 | 0.00 | 80 | 1020.6 |
| 20260509203404 | 58 | 30 | 14.0 | 22.0 | 0.00 | 0.00 | 0.00 | 80 | 1020.6 |
| 20260509201859 | 59 | 30 | 12.0 | 21.0 | 0.00 | 0.00 | 0.00 | 78 | 1020.6 |
| 20260509201351 | 59 | 38 | 11.0 | 20.0 | 0.00 | 0.00 | 0.00 | 77 | 1020.5 |
| 20260509200847 | 59 | 37 | 12.0 | 20.0 | 0.00 | 0.00 | 0.00 | 77 | 1020.4 |
| 20260509200346 | 59 | 50 | 10.0 | 19.0 | 0.00 | 0.00 | 0.00 | 78 | 1020.4 |
| 20260509200211 | 59 | 30 | 9.0 | 18.0 | 0.00 | 0.00 | 0.00 | 78 | 1020.3 |
| 20260509195714 | 59 | 33 | 13.0 | 26.0 | 0.00 | 0.00 | 0.00 | 77 | 1020.3 |
| 20260509194844 | 59 | 53 | 17.0 | 26.0 | 0.00 | 0.00 | 0.00 | 77 | 1020.4 |
| 20260509194339 | 59 | 30 | 9.0 | 19.0 | 0.00 | 0.00 | 0.00 | 76 | 1020.3 |
| 20260509193838 | 59 | 54 | 11.0 | 19.0 | 0.00 | 0.00 | 0.00 | 76 | 1020.2 |
| 20260509193334 | 59 | 43 | 11.0 | 16.0 | 0.00 | 0.00 | 0.00 | 76 | 1020.2 |
| 20260509192940 | 60 | 47 | 11.0 | 16.0 | 0.00 | 0.00 | 0.00 | 76 | 1020.2 |
| 20260509191828 | 60 | 37 | 9.0 | 17.0 | 0.00 | 0.00 | 0.00 | 75 | 1020.3 |
| 20260509191647 | 60 | 40 | 7.0 | 21.0 | 0.00 | 0.00 | 0.00 | 76 | 1020.4 |
| 20260509190829 | 60 | 33 | 15.0 | 21.0 | 0.00 | 0.00 | 0.00 | 76 | 1020.2 |
| 20260509190328 | 60 | 30 | 12.0 | 26.0 | 0.00 | 0.00 | 0.00 | 75 | 1020.3 |
| 20260509185925 | 60 | 25 | 14.0 | 26.0 | 0.00 | 0.00 | 0.00 | 75 | 1020.3 |
| 20260509184824 | 60 | 30 | 10.0 | 24.0 | 0.00 | 0.00 | 0.00 | 76 | 1020.1 |
| 20260509184323 | 60 | 30 | 12.0 | 24.0 | 0.00 | 0.00 | 0.00 | 76 | 1020.0 |
| 20260509183824 | 60 | 15 | 8.0 | 18.0 | 0.00 | 0.00 | 0.00 | 77 | 1020.0 |
| 20260509183319 | 60 | 46 | 11.0 | 20.0 | 0.00 | 0.00 | 0.00 | 76 | 1019.9 |
| 20260509183135 | 60 | 30 | 13.0 | 20.0 | 0.00 | 0.00 | 0.00 | 77 | 1019.8 |
| 20260509182317 | 60 | 10 | 11.0 | 20.0 | 0.00 | 0.00 | 0.00 | 76 | 1019.9 |
| 20260509181818 | 60 | 41 | 16.0 | 22.0 | 0.00 | 0.00 | 0.00 | 76 | 1019.9 |
| 20260509181315 | 60 | 30 | 14.0 | 22.0 | 0.00 | 0.00 | 0.00 | 75 | 1019.8 |
| 20260509180814 | 60 | 30 | 10.0 | 22.0 | 0.00 | 0.00 | 0.00 | 76 | 1019.7 |
| 20260509180634 | 60 | 40 | 13.0 | 19.0 | 0.00 | 0.00 | 0.00 | 76 | 1019.6 |
| 20260509175813 | 60 | 28 | 12.0 | 26.0 | 0.00 | 0.00 | 0.00 | 76 | 1019.5 |
| 20260509175313 | 60 | 46 | 20.0 | 26.0 | 0.00 | 0.00 | 0.00 | 76 | 1019.4 |
| 20260509174812 | 60 | 6 | 14.0 | 28.0 | 0.00 | 0.00 | 0.00 | 76 | 1019.5 |
| 20260509174310 | 60 | 17 | 15.0 | 28.0 | 0.00 | 0.00 | 0.00 | 75 | 1019.5 |
| 20260509173808 | 60 | 30 | 14.0 | 23.0 | 0.00 | 0.00 | 0.00 | 76 | 1019.4 |
| 20260509173306 | 60 | 31 | 14.0 | 23.0 | 0.00 | 0.00 | 0.00 | 76 | 1019.4 |
| 20260509172806 | 61 | 4 | 10.0 | 20.0 | 0.00 | 0.00 | 0.00 | 76 | 1019.4 |
| 20260509172307 | 61 | 14 | 11.0 | 29.0 | 0.00 | 0.00 | 0.00 | 76 | 1019.4 |
| 20260509171807 | 60 | 23 | 13.0 | 29.0 | 0.00 | 0.00 | 0.00 | 76 | 1019.3 |
| 20260509171636 | 60 | 47 | 14.0 | 28.0 | 0.00 | 0.00 | 0.00 | 76 | 1019.4 |
| 20260509170815 | 60 | 24 | 13.0 | 29.0 | 0.00 | 0.00 | 0.00 | 77 | 1019.4 |
| 20260509170304 | 60 | 30 | 19.0 | 29.0 | 0.00 | 0.00 | 0.00 | 76 | 1019.2 |
| 20260509165804 | 60 | 33 | 16.0 | 28.0 | 0.00 | 0.00 | 0.00 | 78 | 1019.2 |
| 20260509165621 | 60 | 7 | 17.0 | 28.0 | 0.00 | 0.00 | 0.00 | 76 | 1019.3 |
| 20260509164806 | 60 | 30 | 15.0 | 26.0 | 0.00 | 0.00 | 0.00 | 77 | 1019.2 |
| 20260509164304 | 60 | 30 | 16.0 | 30.0 | 0.00 | 0.00 | 0.00 | 77 | 1019.3 |
| 20260509163802 | 60 | 4 | 18.0 | 30.0 | 0.00 | 0.00 | 0.00 | 78 | 1019.2 |
| 20260509163300 | 60 | 11 | 21.0 | 30.0 | 0.00 | 0.00 | 0.00 | 80 | 1019.0 |
| 20260509162802 | 60 | 10 | 14.0 | 28.0 | 0.00 | 0.00 | 0.00 | 80 | 1019.2 |
| 20260509162257 | 60 | 30 | 19.0 | 28.0 | 0.00 | 0.00 | 0.00 | 78 | 1019.2 |
| 20260509161757 | 60 | 357 | 15.0 | 28.0 | 0.00 | 0.00 | 0.00 | 80 | 1019.1 |
| 20260509161257 | 60 | 20 | 19.0 | 28.0 | 0.00 | 0.00 | 0.00 | 79 | 1019.2 |
| 20260509160749 | 60 | 20 | 17.0 | 26.0 | 0.00 | 0.00 | 0.00 | 77 | 1019.3 |
| 20260509160248 | 61 | 3 | 13.0 | 29.0 | 0.00 | 0.00 | 0.00 | 78 | 1019.2 |
| 20260509155739 | 60 | 28 | 21.0 | 29.0 | 0.00 | 0.00 | 0.00 | 77 | 1019.4 |
| 20260509155239 | 60 | 354 | 9.0 | 29.0 | 0.00 | 0.00 | 0.00 | 79 | 1019.5 |
| 20260509154739 | 60 | 0 | 15.0 | 31.0 | 0.00 | 0.00 | 0.00 | 79 | 1019.5 |
| 20260509154235 | 60 | 24 | 17.0 | 31.0 | 0.00 | 0.00 | 0.00 | 78 | 1019.5 |
| 20260509153735 | 60 | 356 | 12.0 | 31.0 | 0.00 | 0.00 | 0.00 | 79 | 1019.4 |
| 20260509153541 | 60 | 0 | 20.0 | 31.0 | 0.00 | 0.00 | 0.00 | 78 | 1019.3 |
| 20260509152738 | 60 | 6 | 19.0 | 28.0 | 0.00 | 0.00 | 0.00 | 78 | 1019.4 |
| 20260509152235 | 60 | 36 | 14.0 | 29.0 | 0.00 | 0.00 | 0.00 | 79 | 1019.5 |
| 20260509151733 | 60 | 17 | 14.0 | 29.0 | 0.00 | 0.00 | 0.00 | 80 | 1019.4 |
| 20260509151553 | 60 | 17 | 16.0 | 29.0 | 0.00 | 0.00 | 0.00 | 79 | 1019.5 |
| 20260509150729 | 60 | 30 | 18.0 | 30.0 | 0.00 | 0.00 | 0.00 | 79 | 1019.4 |
| 20260509150228 | 59 | 10 | 20.0 | 30.0 | 0.00 | 0.00 | 0.00 | 78 | 1019.4 |
| 20260509145724 | 59 | 1 | 15.0 | 31.0 | 0.00 | 0.00 | 0.00 | 81 | 1019.4 |
| 20260509145225 | 59 | 18 | 23.0 | 31.0 | 0.00 | 0.00 | 0.00 | 80 | 1019.3 |
| 20260509144724 | 59 | 30 | 16.0 | 31.0 | 0.00 | 0.00 | 0.00 | 80 | 1019.1 |
| 20260509144222 | 59 | 7 | 22.0 | 31.0 | 0.00 | 0.00 | 0.00 | 77 | 1019.3 |
| 20260509143719 | 61 | 30 | 14.0 | 33.0 | 0.00 | 0.00 | 0.00 | 75 | 1019.2 |
| 20260509143214 | 60 | 3 | 19.0 | 33.0 | 0.00 | 0.00 | 0.00 | 74 | 1019.2 |
| 20260509142715 | 61 | 30 | 15.0 | 26.0 | 0.00 | 0.00 | 0.00 | 74 | 1019.1 |
| 20260509142211 | 61 | 30 | 18.0 | 32.0 | 0.00 | 0.00 | 0.00 | 74 | 1019.0 |
| 20260509141712 | 61 | 8 | 16.0 | 32.0 | 0.00 | 0.00 | 0.00 | 74 | 1019.2 |
| 20260509141210 | 61 | 346 | 17.0 | 26.0 | 0.00 | 0.00 | 0.00 | 74 | 1019.1 |
| 20260509140828 | 60 | 6 | 13.0 | 27.0 | 0.00 | 0.00 | 0.00 | 76 | 1019.3 |
| 20260509135712 | 60 | 353 | 21.0 | 31.0 | 0.00 | 0.00 | 0.00 | 77 | 1019.4 |
| 20260509135207 | 59 | 356 | 15.0 | 27.0 | 0.00 | 0.00 | 0.00 | 80 | 1019.4 |
| 20260509134706 | 58 | 30 | 17.0 | 28.0 | 0.00 | 0.01 | 0.00 | 81 | 1019.5 |
| 20260509134206 | 57 | 350 | 13.0 | 28.0 | 0.00 | 0.01 | 0.00 | 79 | 1019.7 |
| 20260509133705 | 59 | 4 | 15.0 | 30.0 | 0.00 | 0.01 | 0.00 | 76 | 1019.9 |
| 20260509133206 | 59 | 10 | 19.0 | 30.0 | 0.00 | 0.01 | 0.00 | 75 | 1019.9 |
| 20260509132704 | 60 | 30 | 17.0 | 28.0 | 0.00 | 0.01 | 0.00 | 71 | 1019.8 |
| 20260509132522 | 60 | 353 | 17.0 | 28.0 | 0.00 | 0.01 | 0.00 | 70 | 1019.8 |
| 20260509131707 | 60 | 325 | 13.0 | 29.0 | 0.00 | 0.01 | 0.00 | 69 | 1019.8 |
| 20260509131206 | 61 | 4 | 15.0 | 29.0 | 0.00 | 0.01 | 0.00 | 69 | 1019.7 |
| 20260509130719 | 60 | 30 | 13.0 | 31.0 | 0.00 | 0.01 | 0.00 | 71 | 1019.8 |
| 20260509130216 | 60 | 30 | 23.0 | 31.0 | 0.00 | 0.01 | 0.00 | 70 | 1019.8 |
| 20260509130032 | 60 | 354 | 20.0 | 29.0 | 0.00 | 0.01 | 0.00 | 71 | 1019.6 |
| 20260509125204 | 59 | 350 | 17.0 | 29.0 | 0.00 | 0.01 | 0.00 | 71 | 1019.7 |
| 20260509124703 | 60 | 8 | 19.0 | 29.0 | 0.00 | 0.01 | 0.00 | 69 | 1019.8 |
| 20260509124204 | 60 | 6 | 17.0 | 32.0 | 0.00 | 0.01 | 0.00 | 69 | 1019.8 |
| 20260509123704 | 60 | 13 | 19.0 | 32.0 | 0.00 | 0.01 | 0.00 | 68 | 1019.9 |
| 20260509123203 | 60 | 27 | 13.0 | 30.0 | 0.00 | 0.01 | 0.00 | 71 | 1020.0 |
| 20260509122703 | 59 | 3 | 19.0 | 30.0 | 0.00 | 0.01 | 0.00 | 69 | 1019.9 |
| 20260509122203 | 59 | 353 | 19.0 | 29.0 | 0.00 | 0.01 | 0.00 | 67 | 1019.9 |
| 20260509121708 | 60 | 21 | 15.0 | 31.0 | 0.00 | 0.01 | 0.00 | 68 | 1020.1 |
| 20260509120158 | 59 | 8 | 17.0 | 26.0 | 0.00 | 0.01 | 0.00 | 68 | 1020.2 |
| 20260509115656 | 59 | 18 | 16.0 | 27.0 | 0.00 | 0.01 | 0.00 | 66 | 1020.2 |
| 20260509115151 | 58 | 30 | 17.0 | 27.0 | 0.00 | 0.01 | 0.00 | 65 | 1020.1 |
| 20260509115015 | 59 | 30 | 15.0 | 24.0 | 0.00 | 0.01 | 0.00 | 63 | 1020.1 |
| 20260509114148 | 58 | 11 | 17.0 | 30.0 | 0.00 | 0.01 | 0.00 | 64 | 1020.2 |
| 20260509114002 | 58 | 41 | 17.0 | 30.0 | 0.00 | 0.01 | 0.00 | 65 | 1020.1 |
| 20260509113141 | 59 | 30 | 14.0 | 22.0 | 0.00 | 0.01 | 0.00 | 66 | 1020.2 |
| 20260509112638 | 59 | 333 | 14.0 | 26.0 | 0.00 | 0.01 | 0.00 | 64 | 1020.1 |
| 20260509112137 | 59 | 11 | 12.0 | 33.0 | 0.00 | 0.01 | 0.00 | 67 | 1020.1 |
| 20260509111635 | 59 | 30 | 21.0 | 33.0 | 0.00 | 0.01 | 0.00 | 66 | 1020.2 |
| 20260509111135 | 59 | 7 | 23.0 | 33.0 | 0.00 | 0.01 | 0.00 | 63 | 1020.1 |
| 20260509110633 | 58 | 1 | 17.0 | 29.0 | 0.00 | 0.01 | 0.00 | 65 | 1019.9 |
| 20260509110133 | 58 | 30 | 23.0 | 29.0 | 0.00 | 0.01 | 0.00 | 65 | 1020.1 |
| 20260509105633 | 59 | 27 | 15.0 | 28.0 | 0.00 | 0.01 | 0.00 | 67 | 1020.0 |
| 20260509105237 | 58 | 30 | 14.0 | 29.0 | 0.00 | 0.01 | 0.00 | 68 | 1020.0 |
| 20260509104130 | 57 | 30 | 12.0 | 29.0 | 0.00 | 0.01 | 0.00 | 67 | 1019.9 |
| 20260509103631 | 58 | 347 | 16.0 | 31.0 | 0.00 | 0.01 | 0.00 | 66 | 1020.0 |
| 20260509103133 | 59 | 15 | 19.0 | 31.0 | 0.00 | 0.01 | 0.00 | 64 | 1019.9 |
| 20260509102635 | 59 | 30 | 14.0 | 24.0 | 0.00 | 0.01 | 0.00 | 63 | 1019.8 |
| 20260509102135 | 58 | 30 | 14.0 | 30.0 | 0.00 | 0.01 | 0.00 | 65 | 1019.8 |
| 20260509101643 | 58 | 25 | 10.0 | 23.0 | 0.00 | 0.01 | 0.00 | 66 | 1019.9 |
| 20260509101636 | 58 | 30 | 21.0 | 30.0 | 0.00 | 0.01 | 0.00 | 64 | 1019.8 |
| 20260509100132 | 58 | 0 | 18.0 | 33.0 | 0.00 | 0.01 | 0.00 | 62 | 1019.7 |
| 20260509095948 | 58 | 18 | 15.0 | 33.0 | 0.00 | 0.01 | 0.00 | 60 | 1019.8 |
| 20260509095133 | 58 | 30 | 17.0 | 30.0 | 0.00 | 0.01 | 0.00 | 59 | 1019.8 |
| 20260509094951 | 58 | 46 | 14.0 | 29.0 | 0.00 | 0.01 | 0.00 | 58 | 1019.8 |
| 20260509094131 | 58 | 3 | 19.0 | 29.0 | 0.00 | 0.01 | 0.00 | 59 | 1019.7 |
| 20260509093631 | 57 | 356 | 13.0 | 24.0 | 0.00 | 0.01 | 0.00 | 65 | 1019.8 |
| 20260509093132 | 57 | 30 | 14.0 | 24.0 | 0.00 | 0.01 | 0.00 | 66 | 1019.9 |
| 20260509092631 | 57 | 349 | 14.0 | 24.0 | 0.00 | 0.01 | 0.00 | 64 | 1019.8 |
| 20260509092129 | 58 | 43 | 16.0 | 27.0 | 0.00 | 0.01 | 0.00 | 63 | 1019.7 |
| 20260509091955 | 58 | 13 | 19.0 | 28.0 | 0.00 | 0.01 | 0.00 | 61 | 1019.7 |
| 20260509091125 | 57 | 30 | 16.0 | 28.0 | 0.00 | 0.01 | 0.00 | 60 | 1019.7 |
| 20260509090624 | 57 | 340 | 13.0 | 23.0 | 0.00 | 0.01 | 0.00 | 65 | 1019.8 |
| 20260509090123 | 57 | 23 | 16.0 | 28.0 | 0.00 | 0.01 | 0.00 | 67 | 1019.8 |
| 20260509085615 | 57 | 8 | 14.0 | 28.0 | 0.00 | 0.01 | 0.00 | 67 | 1019.8 |
| 20260509085113 | 56 | 30 | 16.0 | 26.0 | 0.00 | 0.01 | 0.00 | 68 | 1019.8 |
| 20260509084612 | 56 | 13 | 13.0 | 26.0 | 0.00 | 0.01 | 0.00 | 67 | 1019.8 |
| 20260509084106 | 56 | 30 | 13.0 | 22.0 | 0.00 | 0.01 | 0.00 | 65 | 1019.9 |
| 20260509083606 | 56 | 10 | 14.0 | 22.0 | 0.00 | 0.01 | 0.00 | 60 | 1019.8 |
| 20260509083106 | 57 | 329 | 13.0 | 22.0 | 0.00 | 0.01 | 0.00 | 61 | 1019.8 |
| 20260509082606 | 56 | 31 | 15.0 | 21.0 | 0.00 | 0.01 | 0.00 | 63 | 1019.6 |
| 20260509082100 | 56 | 30 | 10.0 | 26.0 | 0.00 | 0.01 | 0.00 | 68 | 1019.7 |
| 20260509081922 | 56 | 30 | 14.0 | 29.0 | 0.00 | 0.01 | 0.00 | 70 | 1019.8 |
| 20260509081100 | 56 | 30 | 17.0 | 29.0 | 0.00 | 0.01 | 0.00 | 71 | 1019.7 |
| 20260509080556 | 56 | 21 | 13.0 | 22.0 | 0.00 | 0.01 | 0.00 | 70 | 1019.7 |
| 20260509080442 | 56 | 55 | 12.0 | 22.0 | 0.00 | 0.01 | 0.00 | 70 | 1019.6 |
| 20260509080048 | 56 | 30 | 13.0 | 21.0 | 0.00 | 0.01 | 0.00 | 70 | 1019.5 |
| 20260509074549 | 56 | 51 | 13.0 | 30.0 | 0.00 | 0.01 | 0.00 | 69 | 1019.5 |
| 20260509074048 | 56 | 14 | 11.0 | 30.0 | 0.00 | 0.01 | 0.00 | 70 | 1019.3 |
| 20260509073548 | 55 | 30 | 9.0 | 22.0 | 0.00 | 0.01 | 0.00 | 71 | 1019.4 |
| 20260509073047 | 55 | 27 | 15.0 | 22.0 | 0.00 | 0.01 | 0.00 | 71 | 1019.3 |
| 20260509072543 | 55 | 36 | 8.0 | 19.0 | 0.00 | 0.01 | 0.00 | 73 | 1019.3 |
| 20260509072042 | 55 | 14 | 11.0 | 16.0 | 0.00 | 0.01 | 0.00 | 75 | 1019.2 |
| 20260509071541 | 55 | 30 | 8.0 | 18.0 | 0.00 | 0.01 | 0.00 | 75 | 1019.1 |
| 20260509071039 | 55 | 23 | 6.0 | 18.0 | 0.00 | 0.01 | 0.00 | 75 | 1018.9 |
| 20260509070537 | 54 | 7 | 7.0 | 18.0 | 0.00 | 0.01 | 0.00 | 77 | 1019.0 |
| 20260509070052 | 53 | 30 | 10.0 | 17.0 | 0.00 | 0.01 | 0.00 | 79 | 1019.0 |
| 20260509065533 | 53 | 17 | 8.0 | 15.0 | 0.00 | 0.01 | 0.00 | 79 | 1019.0 |
| 20260509065034 | 54 | 347 | 8.0 | 23.0 | 0.00 | 0.01 | 0.00 | 79 | 1019.0 |
| 20260509064532 | 54 | 10 | 11.0 | 23.0 | 0.00 | 0.01 | 0.00 | 76 | 1019.0 |
| 20260509064340 | 55 | 322 | 4.0 | 17.0 | 0.00 | 0.01 | 0.00 | 76 | 1018.9 |
| 20260509063627 | 55 | 8 | 11.0 | 17.0 | 0.00 | 0.01 | 0.00 | 75 | 1018.8 |
| 20260509062524 | 55 | 1 | 4.0 | 9.0 | 0.00 | 0.01 | 0.00 | 76 | 1018.6 |
| 20260509062021 | 55 | 37 | 2.0 | 10.0 | 0.00 | 0.01 | 0.00 | 76 | 1018.6 |
| 20260509061517 | 55 | 36 | 4.0 | 14.0 | 0.00 | 0.01 | 0.00 | 75 | 1018.7 |
| 20260509061017 | 54 | 41 | 9.0 | 14.0 | 0.00 | 0.01 | 0.00 | 76 | 1018.7 |
| 20260509060513 | 54 | 43 | 8.0 | 23.0 | 0.00 | 0.01 | 0.00 | 75 | 1018.6 |
| 20260509060018 | 55 | 11 | 4.0 | 23.0 | 0.00 | 0.01 | 0.00 | 75 | 1018.7 |
| 20260509055509 | 55 | 60 | 7.0 | 18.0 | 0.00 | 0.01 | 0.00 | 75 | 1018.7 |
| 20260509055009 | 55 | 62 | 11.0 | 18.0 | 0.00 | 0.01 | 0.00 | 76 | 1018.7 |
| 20260509054830 | 55 | 41 | 12.0 | 21.0 | 0.00 | 0.01 | 0.00 | 78 | 1018.8 |
| 20260509054007 | 55 | 27 | 10.0 | 24.0 | 0.00 | 0.01 | 0.00 | 77 | 1018.8 |
| 20260509053508 | 55 | 36 | 17.0 | 24.0 | 0.00 | 0.01 | 0.00 | 76 | 1018.7 |
| 20260509053007 | 56 | 57 | 10.0 | 16.0 | 0.00 | 0.01 | 0.00 | 75 | 1018.5 |
| 20260509052504 | 56 | 6 | 4.0 | 14.0 | 0.00 | 0.01 | 0.00 | 75 | 1018.6 |
| 20260509052005 | 56 | 24 | 8.0 | 12.0 | 0.00 | 0.01 | 0.00 | 75 | 1018.7 |
| 20260509051505 | 56 | 8 | 6.0 | 12.0 | 0.00 | 0.01 | 0.00 | 75 | 1018.7 |
| 20260509051004 | 55 | 30 | 8.0 | 12.0 | 0.00 | 0.01 | 0.00 | 74 | 1018.9 |
| 20260509050505 | 55 | 53 | 5.0 | 11.0 | 0.00 | 0.01 | 0.00 | 75 | 1018.9 |
| 20260509050011 | 55 | 30 | 7.0 | 15.0 | 0.00 | 0.01 | 0.00 | 76 | 1019.0 |
| 20260509045821 | 55 | 332 | 6.0 | 15.0 | 0.00 | 0.01 | 0.00 | 76 | 1019.0 |
| 20260509045005 | 55 | 14 | 8.0 | 16.0 | 0.00 | 0.01 | 0.00 | 78 | 1019.0 |
| 20260509044505 | 55 | 36 | 9.0 | 16.0 | 0.00 | 0.01 | 0.00 | 78 | 1019.0 |
| 20260509044003 | 56 | 46 | 9.0 | 17.0 | 0.00 | 0.01 | 0.00 | 76 | 1019.0 |
| 20260509043506 | 56 | 40 | 8.0 | 17.0 | 0.00 | 0.01 | 0.00 | 74 | 1019.0 |
| 20260509042958 | 56 | 0 | 12.0 | 19.0 | 0.00 | 0.01 | 0.00 | 75 | 1019.0 |
| 20260509042501 | 56 | 20 | 11.0 | 19.0 | 0.00 | 0.01 | 0.00 | 75 | 1019.1 |
| 20260509041958 | 56 | 21 | 11.0 | 19.0 | 0.00 | 0.01 | 0.00 | 74 | 1019.1 |
| 20260509041456 | 56 | 24 | 12.0 | 21.0 | 0.00 | 0.01 | 0.00 | 72 | 1019.1 |
| 20260509040956 | 56 | 25 | 12.0 | 21.0 | 0.00 | 0.01 | 0.00 | 73 | 1018.9 |
| 20260509040456 | 56 | 3 | 6.0 | 13.0 | 0.00 | 0.01 | 0.00 | 75 | 1019.1 |
| 20260509035953 | 56 | 28 | 6.0 | 14.0 | 0.00 | 0.01 | 0.00 | 75 | 1019.0 |
| 20260509035451 | 56 | 18 | 6.0 | 14.0 | 0.00 | 0.01 | 0.00 | 75 | 1019.1 |
| 20260509034952 | 56 | 357 | 6.0 | 14.0 | 0.00 | 0.01 | 0.00 | 74 | 1019.1 |
| 20260509034826 | 55 | 1 | 7.0 | 14.0 | 0.00 | 0.01 | 0.00 | 74 | 1019.1 |
| 20260509034310 | 55 | 343 | 5.0 | 18.0 | 0.00 | 0.01 | 0.00 | 72 | 1019.1 |
| 20260509033836 | 55 | 325 | 5.0 | 18.0 | 0.00 | 0.01 | 0.00 | 72 | 1019.1 |
| 20260509033829 | 55 | 10 | 9.0 | 15.0 | 0.00 | 0.01 | 0.00 | 71 | 1019.1 |
| 20260509031947 | 55 | 359 | 5.0 | 13.0 | 0.00 | 0.01 | 0.00 | 69 | 1019.3 |
| 20260509031448 | 55 | 50 | 7.0 | 13.0 | 0.00 | 0.01 | 0.00 | 68 | 1019.2 |
| 20260509030946 | 55 | 4 | 7.0 | 18.0 | 0.00 | 0.01 | 0.00 | 68 | 1019.2 |
| 20260509030852 | 55 | 25 | 7.0 | 18.0 | 0.00 | 0.01 | 0.00 | 66 | 1019.3 |
| 20260509025947 | 55 | 30 | 9.0 | 17.0 | 0.00 | 0.01 | 0.00 | 64 | 1019.3 |
| 20260509025447 | 55 | 24 | 10.0 | 14.0 | 0.00 | 0.01 | 0.00 | 63 | 1019.3 |
| 20260509024946 | 55 | 27 | 9.0 | 19.0 | 0.00 | 0.01 | 0.00 | 62 | 1019.3 |
| 20260509024447 | 55 | 30 | 10.0 | 19.0 | 0.00 | 0.01 | 0.00 | 61 | 1019.4 |
| 20260509023947 | 55 | 30 | 12.0 | 18.0 | 0.00 | 0.01 | 0.00 | 62 | 1019.4 |
| 20260509023442 | 55 | 21 | 11.0 | 17.0 | 0.00 | 0.01 | 0.00 | 65 | 1019.5 |
| 20260509022941 | 55 | 20 | 12.0 | 18.0 | 0.00 | 0.01 | 0.00 | 67 | 1019.6 |
| 20260509022438 | 55 | 30 | 9.0 | 19.0 | 0.00 | 0.01 | 0.00 | 70 | 1019.6 |
| 20260509022255 | 55 | 346 | 9.0 | 19.0 | 0.00 | 0.01 | 0.00 | 70 | 1019.5 |
| 20260509021436 | 56 | 18 | 7.0 | 16.0 | 0.00 | 0.01 | 0.00 | 69 | 1019.6 |
| 20260509020934 | 56 | 30 | 11.0 | 16.0 | 0.00 | 0.01 | 0.00 | 67 | 1019.6 |
| 20260509020434 | 56 | 17 | 10.0 | 22.0 | 0.00 | 0.01 | 0.00 | 64 | 1019.6 |
| 20260509020251 | 56 | 30 | 12.0 | 22.0 | 0.00 | 0.01 | 0.00 | 64 | 1019.6 |
| 20260509015819 | 56 | 7 | 10.0 | 22.0 | 0.00 | 0.01 | 0.00 | 64 | 1019.6 |
| 20260509014933 | 56 | 30 | 15.0 | 22.0 | 0.00 | 0.01 | 0.00 | 64 | 1019.7 |
| 20260509014432 | 56 | 28 | 11.0 | 20.0 | 0.00 | 0.01 | 0.00 | 65 | 1019.7 |
| 20260509013932 | 56 | 30 | 11.0 | 21.0 | 0.00 | 0.01 | 0.00 | 65 | 1019.7 |
| 20260509013432 | 56 | 72 | 15.0 | 21.0 | 0.00 | 0.01 | 0.00 | 66 | 1019.7 |
| 20260509012927 | 56 | 30 | 11.0 | 22.0 | 0.00 | 0.01 | 0.00 | 67 | 1019.8 |
| 20260509012425 | 56 | 30 | 14.0 | 22.0 | 0.00 | 0.01 | 0.00 | 67 | 1019.9 |
| 20260509011926 | 56 | 31 | 9.0 | 20.0 | 0.00 | 0.01 | 0.00 | 68 | 1019.8 |
| 20260509011421 | 56 | 30 | 13.0 | 18.0 | 0.00 | 0.01 | 0.00 | 70 | 1019.7 |
| 20260509011040 | 57 | 30 | 10.0 | 19.0 | 0.00 | 0.01 | 0.00 | 70 | 1019.8 |
| 20260509005915 | 56 | 21 | 11.0 | 19.0 | 0.00 | 0.01 | 0.00 | 70 | 1019.8 |
| 20260509005411 | 56 | 30 | 12.0 | 19.0 | 0.00 | 0.01 | 0.00 | 69 | 1019.9 |
| 20260509004905 | 56 | 4 | 7.0 | 16.0 | 0.00 | 0.01 | 0.00 | 68 | 1019.9 |
| 20260509004406 | 57 | 1 | 6.0 | 19.0 | 0.00 | 0.01 | 0.00 | 68 | 1020.0 |
| 20260509003906 | 57 | 43 | 11.0 | 21.0 | 0.00 | 0.01 | 0.00 | 69 | 1020.0 |
| 20260509003728 | 57 | 30 | 13.0 | 22.0 | 0.00 | 0.01 | 0.00 | 70 | 1020.0 |
| 20260509002859 | 57 | 30 | 12.0 | 22.0 | 0.00 | 0.01 | 0.00 | 71 | 1020.0 |
| 20260509002357 | 57 | 17 | 15.0 | 21.0 | 0.00 | 0.01 | 0.00 | 71 | 1020.0 |
| 20260509001850 | 57 | 33 | 13.0 | 19.0 | 0.00 | 0.01 | 0.00 | 72 | 1020.0 |
| 20260509001352 | 57 | 3 | 7.0 | 19.0 | 0.00 | 0.01 | 0.00 | 72 | 1020.0 |
| 20260509000851 | 57 | 30 | 6.0 | 22.0 | 0.00 | 0.01 | 0.00 | 72 | 1020.2 |
| 20260509000345 | 57 | 30 | 16.0 | 22.0 | 0.00 | 0.01 | 0.00 | 72 | 1020.1 |
| 20260508235846 | 57 | 24 | 12.0 | 17.0 | 0.00 | 0.01 | 0.01 | 74 | 1020.1 |
| 20260508235342 | 57 | 47 | 11.0 | 17.0 | 0.00 | 0.01 | 0.01 | 77 | 1020.2 |
| 20260508234843 | 57 | 21 | 11.0 | 15.0 | 0.00 | 0.01 | 0.01 | 78 | 1020.0 |
| 20260508234343 | 57 | 27 | 9.0 | 21.0 | 0.00 | 0.01 | 0.01 | 78 | 1020.0 |
| 20260508233841 | 57 | 8 | 6.0 | 21.0 | 0.00 | 0.01 | 0.01 | 78 | 1019.9 |
| 20260508233343 | 57 | 34 | 5.0 | 17.0 | 0.00 | 0.01 | 0.01 | 78 | 1020.1 |
| 20260508233206 | 57 | 337 | 10.0 | 18.0 | 0.00 | 0.01 | 0.01 | 78 | 1020.0 |
| 20260508232342 | 57 | 36 | 12.0 | 18.0 | 0.00 | 0.01 | 0.01 | 78 | 1020.1 |
| 20260508231837 | 57 | 13 | 12.0 | 22.0 | 0.00 | 0.01 | 0.01 | 78 | 1020.2 |
| 20260508231336 | 57 | 31 | 11.0 | 22.0 | 0.00 | 0.01 | 0.01 | 77 | 1020.2 |
| 20260508231154 | 57 | 36 | 11.0 | 22.0 | 0.00 | 0.01 | 0.01 | 77 | 1020.2 |
| 20260508230334 | 57 | 27 | 10.0 | 26.0 | 0.00 | 0.01 | 0.01 | 80 | 1020.1 |
| 20260508225835 | 58 | 18 | 16.0 | 26.0 | 0.00 | 0.01 | 0.01 | 79 | 1019.9 |
| 20260508225332 | 58 | 18 | 12.0 | 22.0 | 0.00 | 0.01 | 0.01 | 76 | 1019.8 |
| 20260508224830 | 58 | 24 | 15.0 | 22.0 | 0.00 | 0.01 | 0.01 | 76 | 1019.8 |
| 20260508224331 | 58 | 36 | 10.0 | 23.0 | 0.00 | 0.01 | 0.01 | 77 | 1019.9 |
| 20260508223832 | 58 | 30 | 17.0 | 23.0 | 0.00 | 0.01 | 0.01 | 76 | 1019.9 |
| 20260508223331 | 58 | 14 | 12.0 | 22.0 | 0.00 | 0.01 | 0.01 | 77 | 1019.8 |
| 20260508222831 | 57 | 30 | 15.0 | 22.0 | 0.00 | 0.01 | 0.01 | 78 | 1019.8 |
| 20260508222330 | 57 | 30 | 8.0 | 20.0 | 0.00 | 0.01 | 0.01 | 80 | 1019.7 |
| 20260508221828 | 57 | 17 | 10.0 | 26.0 | 0.00 | 0.01 | 0.01 | 80 | 1019.6 |
| 20260508221328 | 57 | 30 | 13.0 | 26.0 | 0.00 | 0.01 | 0.01 | 80 | 1019.5 |
| 20260508220827 | 57 | 30 | 11.0 | 26.0 | 0.00 | 0.01 | 0.01 | 80 | 1019.5 |
| 20260508220326 | 58 | 0 | 10.0 | 19.0 | 0.00 | 0.01 | 0.01 | 78 | 1019.4 |
| 20260508215824 | 58 | 356 | 11.0 | 21.0 | 0.00 | 0.01 | 0.01 | 78 | 1019.3 |
| 20260508215319 | 58 | 1 | 14.0 | 21.0 | 0.00 | 0.01 | 0.01 | 78 | 1019.3 |
| 20260508214820 | 58 | 30 | 7.0 | 15.0 | 0.00 | 0.01 | 0.01 | 76 | 1019.2 |
| 20260508214633 | 58 | 6 | 10.0 | 18.0 | 0.00 | 0.01 | 0.01 | 76 | 1019.2 |
| 20260508213814 | 58 | 357 | 12.0 | 18.0 | 0.00 | 0.01 | 0.01 | 77 | 1019.3 |
| 20260508213309 | 58 | 13 | 11.0 | 18.0 | 0.00 | 0.01 | 0.01 | 78 | 1019.2 |
| 20260508212803 | 58 | 353 | 12.0 | 18.0 | 0.00 | 0.01 | 0.01 | 78 | 1019.1 |
| 20260508212307 | 58 | 336 | 7.0 | 19.0 | 0.00 | 0.01 | 0.01 | 78 | 1019.1 |
| 20260508211806 | 58 | 18 | 8.0 | 19.0 | 0.00 | 0.01 | 0.01 | 78 | 1019.0 |
| 20260508211621 | 58 | 351 | 9.0 | 17.0 | 0.00 | 0.01 | 0.01 | 78 | 1018.9 |
| 20260508210806 | 58 | 347 | 11.0 | 19.0 | 0.00 | 0.01 | 0.01 | 78 | 1018.9 |